Regional Weather Roundup
Issued by NWS Huntsville, AL

Current Version | Previous Version | Graphics & Text | Print | Product List | Glossary On
Versions: 1 2 3 4 5 6 7 8 9 10 11 12 13 14 15 16 17 18 19 20 21 22 23 24 25 26 27 28 29 30 31 32 33 34 35 36 37 38 39 40 41 42 43 44 45 46 47 48 49 50
000
ASUS44 KHUN 270310
RWRHUN

WEATHER ROUNDUP FOR THE TENNESSEE VALLEY
NATIONAL WEATHER SERVICE HUNTSVILLE AL
1000 PM CDT MON OCT 26 2020

ALZ001>004-270400-
NORTHWEST ALABAMA

CITY           SKY/WX    TMP DP  RH WIND       PRES   REMARKS
SHOALS AIRPORT CLOUDY    61  56  83 NE9       30.16S
$$

ALZ005>007-016-270400-
NORTH CENTRAL ALABAMA

CITY           SKY/WX    TMP DP  RH WIND       PRES   REMARKS
CULLMAN AG STN   N/A     61 N/A N/A N3          N/A
DECATUR AP     CLOUDY    59  57  93 N12       30.17R
HUNTSVILLE AP  CLOUDY    60  56  86 N12       30.16R
HUN NWS/UAH      N/A     59  57  92 N7          N/A
MERIDIANVILLE  CLOUDY    59  56  91 N10       30.17R
VINEMONT AP    FAIR      60  58  93 N5        30.16S
$$

ALZ008>010-270400-
NORTHEAST ALABAMA

CITY           SKY/WX    TMP DP  RH WIND       PRES   REMARKS
ALBERTVILLE    PTCLDY    61  61 100 N3        30.14R
FORT PAYNE     CLOUDY    67  64  91 CALM      30.13S
SCOTTSBORO AP  CLOUDY    63  63 100 CALM      30.14S
$$

TNZ076-096-097-270400-
SOUTHEASTERN MIDDLE TENNESSEE

CITY           SKY/WX    TMP DP  RH WIND       PRES   REMARKS
FAYETTEVILLE   CLOUDY    57  55  94 N8        30.20R
TULLAHOMA      CLOUDY    57  55  94 N5        30.17R
WINCHESTER     CLOUDY    59  57  94 NE7       30.17R
$$

...SURROUNDING SITES...

CITY           SKY/WX    TMP DP  RH WIND       PRES   REMARKS
ATLANTA        CLOUDY    66  63  90 E8        30.16R
ANNISTON       MOCLDY    68  66  93 E5        30.13R
BIRMINGHAM     PTCLDY    67  62  84 CALM      30.14R
CHATTANOOGA    MOCLDY    68  60  75 NE3       30.14S
CORINTH        CLOUDY    57  54  88 N8        30.16R
DALTON         MOCLDY    68  63  83 CALM      30.16R
GADSDEN        PTCLDY    66  63  90 NE5       30.13R
GOLDEN TRNGL   CLEAR     61  61 100 N5        30.12R
HALEYVILLE     CLOUDY    59  57  93 VRB7      30.17R
JACKSON TN     LGT RAIN  52  49  89 NE8       30.19F FOG
MEMPHIS        CLOUDY    54  49  83 NE12      30.16F
NASHVILLE      CLOUDY    56  49  77 N9        30.23R
OXFORD MS      CLOUDY    55  54  94 NE7       30.15S
ROME           CLOUDY    67  63  87 E3        30.14R
SAVANNAH       CLOUDY    57  54  88 N9        30.17R
SELMER         CLOUDY    54  52  94 N8        30.17R
TUPELO         CLEAR     59  55  87 NE7       30.13F
TUSCALOOSA     PTCLDY    65  63  93 NE6       30.10S
$$




USA.gov is the U.S. government's official web portal to all federal, state and local government web resources and services.